Погода в Чижовке-2

Россия / Смоленская область     54°04′44″N   33°10′55″E
темп.,
°C
ветер,
м/с
пор.,
м/с
влажн.,
%
обл.,
%
осадки,
мм/ч
давл.,
гПа
погр.,
м
21 апреля, ср
ср2100:00+2св3597100 0.0 1010392
03:00+2ссв2495100 0.1 1009446
06:00+2сз2594100 0.0 1008399
09:00+3сз3585100 0.0 1008612
12:00+5зсз3474100 0.1 1009942
15:00+7з2468100 0.1 1009805
18:00+7ююз2372100 0.0 1010680
21:00+4ю348988 0.2 101175
22 апреля, чт
чт2200:00+3ююз369514 0.1 1012112
03:00+3ю38965 0.1 1012193
06:00+3ю399682 0.0 1013195
09:00+8ююз588211 0.1 1013449
12:00+13ююз686345 0.8 10121391
15:00+14ююз695830 2.3 10111783
18:00+13ююз596588 1.4 1011801
21:00+9ю4118681 1.5 1013262
23 апреля, пт
пт2300:00+9ю61486100 0.1 1012709
03:00+8ююз5128958 0.1 1012724
06:00+7юз3695100 0.1 1013492
09:00+5зсз3592100 1.6 1015535
12:00+5юз2487100 3.9 1015475
15:00+5зюз2491100 5.4 1015659
18:00+6зюз1381100 1.2 1014525
21:00+4ю2391100 1.3 101372
24 апреля, сб
сб2400:00+4юз2486100 0.2 1011115
03:00+4з2286100 0.3 101046
06:00+2з398985 0.1 1010294
09:00+4з577513 0.1 1010807
12:00+6з6762100 0.7 10101612
15:00+6зюз5759100 1.2 10111557
18:00+6з576392 0.8 10101352
21:00+2з498296 1.1 1011389
25 апреля, вс
вс2500:00+1зюз398991 0.0 1012391
03:000зюз399545 0.0 1012242
06:000зюз38955 0.0 1012272
09:00+4зюз46716 0.0 1011906
12:00+6юз6850100 0.7 10112011
15:00+6зюз7850100 0.9 10101976
18:00+3зюз5986100 1.1 1010941
21:00+2зюз5108986 1.4 1011823